IK1WHN-5 Weather Reports


Display with metric or nautical units.
time (UTC)temp
F
wind
direction
speed
MPH
gust
MPH
rain 1hr
in
rain 24hr
in
rain mn
in
humidity
%
barometer
mb
20260507213604 0 322 4.0 4.0 0.00 0.00 0.00 87 1013.5
20260507213102 0 337 2.0 5.0 0.00 0.00 0.00 87 1013.3
20260507212602 0 342 0.0 4.0 0.00 0.00 0.00 87 1013.5
20260507212103 0 31 0.0 6.0 0.00 0.00 0.00 87 1013.5
20260507211603 0 0 0.0 5.0 0.00 0.00 0.00 87 1013.7
20260507211103 0 352 2.0 7.0 0.00 0.00 0.00 87 1013.6
20260507210604 0 350 0.0 5.0 0.00 0.00 0.00 87 1013.2
20260507205602 0 0 3.0 7.0 0.00 0.00 0.00 87 1013.3
20260507205102 0 359 6.0 6.0 0.00 0.00 0.00 87 1013.5
20260507204603 0 307 2.0 6.0 0.00 0.00 0.00 86 1013.3
20260507204104 0 350 4.0 6.0 0.00 0.00 0.00 86 1013.5
20260507203603 0 317 4.0 4.0 0.00 0.00 0.00 86 1013.5
20260507203103 0 0 0.0 4.0 0.00 0.00 0.00 86 1013.6
20260507202602 0 45 0.0 5.0 0.00 0.00 0.00 86 1013.5
20260507202103 0 340 3.0 4.0 0.00 0.00 0.00 86 1013.2
20260507201603 0 7 1.0 5.0 0.00 0.00 0.00 86 1013.2
20260507201103 0 10 1.0 6.0 0.00 0.00 0.00 86 1013.1
20260507195602 0 4 1.0 8.0 0.00 0.00 0.00 86 1012.8
20260507194603 0 349 2.0 4.0 0.00 0.00 0.00 85 1012.8
20260507194103 0 29 0.0 4.0 0.00 0.00 0.00 85 1013.0
20260507193602 0 0 1.0 4.0 0.00 0.00 0.00 85 1012.8
20260507193102 0 7 2.0 4.0 0.00 0.00 0.00 85 1013.0
20260507192602 0 313 3.0 5.0 0.00 0.00 0.00 85 1013.1
20260507192103 0 0 3.0 7.0 0.00 0.00 0.00 84 1013.0
20260507191603 0 55 2.0 6.0 0.00 0.00 0.00 84 1012.7
20260507191102 0 288 3.0 4.0 0.00 0.00 0.00 84 1012.7
20260507190603 0 353 5.0 6.0 0.00 0.00 0.00 83 1012.7
20260507185603 0 346 5.0 5.0 0.00 0.00 0.00 83 1012.6
20260507185103 0 353 6.0 6.0 0.00 0.00 0.00 83 1012.7
20260507184603 0 24 3.0 8.0 0.00 0.00 0.00 83 1012.7
20260507184102 0 0 2.0 6.0 0.00 0.00 0.00 83 1012.6
20260507183604 0 343 2.0 5.0 0.00 0.00 0.00 82 1012.8
20260507183103 0 325 1.0 2.0 0.00 0.00 0.00 82 1012.7
20260507182602 0 286 0.0 1.0 0.00 0.00 0.00 82 1012.7
20260507182102 0 270 0.0 1.0 0.00 0.00 0.00 81 1012.7
20260507181603 0 180 0.0 2.0 0.00 0.00 0.00 80 1012.8
20260507180603 0 90 0.0 1.0 0.00 0.00 0.00 78 1012.7
20260507175603 0 162 2.0 2.0 0.00 0.00 0.00 78 1012.8
20260507175103 0 270 0.0 0.0 0.00 0.00 0.00 78 1012.7
20260507174603 0 279 0.0 2.0 0.00 0.00 0.00 77 1012.7
20260507174102 0 300 1.0 2.0 0.00 0.00 0.00 76 1012.8
20260507173603 0 194 2.0 4.0 0.00 0.00 0.00 75 1012.7
20260507173102 0 180 1.0 3.0 0.00 0.00 0.00 75 1012.7
20260507172602 0 203 1.0 3.0 0.00 0.00 0.00 74 1012.7
20260507172104 0 248 3.0 3.0 0.00 0.00 0.00 72 1012.7
20260507171604 0 251 2.0 4.0 0.00 0.00 0.00 68 1012.6
20260507171103 0 152 2.0 2.0 0.00 0.00 0.00 66 1012.6
20260507170602 0 212 5.0 5.0 0.00 0.00 0.00 66 1012.7
20260507165603 0 225 2.0 5.0 0.00 0.00 0.00 68 1012.7
20260507165102 0 219 2.0 4.0 0.00 0.00 0.00 69 1012.5
20260507164602 0 162 2.0 6.0 0.00 0.00 0.00 70 1012.7
20260507164104 0 156 2.0 5.0 0.00 0.00 0.00 68 1012.7
20260507163603 0 122 4.0 6.0 0.00 0.00 0.00 69 1012.5
20260507163105 0 142 4.0 7.0 0.00 0.00 0.00 67 1012.5
20260507162605 0 183 2.0 4.0 0.00 0.00 0.00 68 1012.7
20260507162102 0 125 2.0 7.0 0.00 0.00 0.00 67 1012.6
20260507161603 0 168 2.0 6.0 0.00 0.00 0.00 68 1012.7
20260507161102 0 202 3.0 5.0 0.00 0.00 0.00 68 1012.5
20260507160603 0 180 2.0 6.0 0.00 0.00 0.00 70 1012.7
20260507160104 0 128 3.0 4.0 0.00 0.00 0.00 72 1012.7
20260507155603 0 115 3.0 7.0 0.00 0.00 0.00 74 1012.7
20260507155104 0 125 3.0 13.0 0.00 0.00 0.00 72 1012.8
20260507154603 0 116 6.0 9.0 0.00 0.00 0.00 72 1012.8
20260507154103 0 103 2.0 7.0 0.00 0.00 0.00 71 1012.7
20260507153603 0 106 4.0 10.0 0.00 0.00 0.00 70 1012.8
20260507153102 0 160 10.0 11.0 0.00 0.00 0.00 72 1012.7
20260507152606 0 184 9.0 11.0 0.00 0.00 0.00 73 1012.7
20260507152102 0 189 6.0 10.0 0.00 0.00 0.00 71 1012.7
20260507151603 0 143 9.0 9.0 0.00 0.00 0.00 70 1012.7
20260507151103 0 176 3.0 8.0 0.00 0.00 0.00 72 1012.7
20260507150603 0 173 6.0 8.0 0.00 0.00 0.00 70 1012.7
20260507145603 0 170 4.0 11.0 0.00 0.00 0.00 73 1012.7
20260507145104 0 199 3.0 6.0 0.00 0.00 0.00 72 1012.7
20260507144602 0 116 6.0 10.0 0.00 0.00 0.00 73 1012.8
20260507144103 0 116 9.0 9.0 0.00 0.00 0.00 71 1012.7
20260507143603 0 119 5.0 8.0 0.00 0.00 0.00 72 1012.8
20260507143103 0 171 6.0 8.0 0.00 0.00 0.00 72 1012.8
20260507142603 0 124 12.0 15.0 0.00 0.00 0.00 73 1013.0
20260507142102 0 107 6.0 13.0 0.00 0.00 0.00 71 1013.2
20260507141602 0 111 9.0 9.0 0.00 0.00 0.00 72 1013.2
20260507141102 0 214 4.0 11.0 0.00 0.00 0.00 72 1013.0
20260507140603 0 156 3.0 11.0 0.00 0.00 0.00 74 1013.2
20260507140103 0 133 5.0 13.0 0.00 0.00 0.00 75 1012.8
20260507135603 0 154 10.0 16.0 0.00 0.00 0.00 74 1013.1
20260507135103 0 184 7.0 12.0 0.00 0.00 0.00 73 1013.2
20260507134602 0 110 9.0 11.0 0.00 0.00 0.00 73 1013.2
20260507134103 0 180 7.0 14.0 0.00 0.00 0.00 73 1013.2
20260507133604 0 159 2.0 12.0 0.00 0.00 0.00 72 1013.1
20260507133102 0 166 5.0 9.0 0.00 0.00 0.00 74 1013.1
20260507132604 0 177 13.0 17.0 0.00 0.00 0.00 74 1013.1
20260507132103 0 169 9.0 15.0 0.00 0.00 0.00 74 1013.2
20260507131604 0 142 8.0 15.0 0.00 0.00 0.00 74 1013.2
20260507131102 0 168 8.0 14.0 0.00 0.00 0.00 74 1013.3
20260507130603 0 180 6.0 10.0 0.00 0.00 0.00 75 1013.2
20260507125602 0 192 4.0 13.0 0.00 0.00 0.00 75 1013.0
20260507125102 0 132 3.0 16.0 0.00 0.00 0.00 76 1013.5
20260507124602 0 189 16.0 20.0 0.00 0.00 0.00 74 1013.1
20260507124102 0 170 19.0 19.0 0.00 0.00 0.00 73 1013.0
20260507123603 0 172 7.0 14.0 0.00 0.00 0.00 70 1013.2
20260507123102 0 148 3.0 15.0 0.00 0.00 0.00 69 1013.2
20260507122602 0 192 10.0 14.0 0.00 0.00 0.00 66 1013.0
20260507122103 0 133 6.0 6.0 0.00 0.00 0.00 68 1012.8
20260507121603 0 180 4.0 15.0 0.00 0.00 0.00 69 1013.0
20260507121103 0 127 8.0 14.0 0.00 0.00 0.00 68 1013.0
20260507120602 0 161 5.0 11.0 0.00 0.00 0.00 67 1013.0
20260507115602 0 156 5.0 9.0 0.00 0.00 0.00 71 1013.1
20260507115102 0 93 4.0 6.0 0.00 0.00 0.00 72 1013.1
20260507114603 0 192 14.0 15.0 0.00 0.00 0.00 71 1013.3
20260507114102 0 220 2.0 18.0 0.00 0.00 0.00 72 1013.3
20260507113603 0 131 6.0 14.0 0.00 0.00 0.00 70 1013.2
20260507113103 0 90 3.0 20.0 0.00 0.00 0.00 72 1013.2
20260507112603 0 138 11.0 16.0 0.00 0.00 0.00 71 1013.5
20260507112102 0 135 10.0 16.0 0.00 0.00 0.00 71 1013.2
20260507111602 0 157 6.0 18.0 0.00 0.00 0.00 69 1013.2
20260507111102 0 181 5.0 13.0 0.00 0.00 0.00 68 1013.2
20260507110602 0 165 9.0 16.0 0.00 0.00 0.00 70 1013.2
20260507105602 0 88 10.0 15.0 0.00 0.00 0.00 68 1013.2
20260507105102 0 124 7.0 8.0 0.00 0.00 0.00 67 1013.0
20260507104603 0 159 5.0 11.0 0.00 0.00 0.00 70 1013.2
20260507104103 0 117 4.0 11.0 0.00 0.00 0.00 71 1013.5
20260507103603 0 158 5.0 16.0 0.00 0.00 0.00 71 1013.3
20260507103104 0 112 8.0 12.0 0.00 0.00 0.00 72 1013.3
20260507102603 0 90 5.0 17.0 0.00 0.00 0.00 74 1013.3
20260507102102 0 98 8.0 16.0 0.00 0.00 0.00 71 1013.6
20260507101602 0 111 6.0 13.0 0.00 0.00 0.00 70 1013.5
20260507101102 0 206 1.0 10.0 0.00 0.00 0.00 71 1013.3
20260507100603 0 161 7.0 11.0 0.00 0.00 0.00 70 1013.2
20260507095602 0 146 6.0 15.0 0.00 0.00 0.00 68 1013.5
20260507095103 0 165 5.0 15.0 0.00 0.00 0.00 68 1013.3
20260507094603 0 147 5.0 10.0 0.00 0.00 0.00 67 1013.2
20260507094103 0 108 0.0 14.0 0.00 0.00 0.00 68 1013.3
20260507093603 0 181 5.0 7.0 0.00 0.00 0.00 66 1013.2
20260507093103 0 120 2.0 9.0 0.00 0.00 0.00 67 1013.2
20260507092603 0 125 6.0 15.0 0.00 0.00 0.00 67 1013.3
20260507092102 0 163 3.0 14.0 0.00 0.00 0.00 66 1013.3
20260507091602 0 144 2.0 10.0 0.00 0.00 0.00 68 1013.3
20260507091103 0 123 8.0 11.0 0.00 0.00 0.00 66 1013.3
20260507090602 0 183 2.0 9.0 0.00 0.00 0.00 70 1013.2
20260507085603 0 152 12.0 15.0 0.00 0.00 0.00 70 1013.2
20260507085103 0 134 5.0 14.0 0.00 0.00 0.00 70 1013.2
20260507084603 0 113 13.0 17.0 0.00 0.00 0.00 69 1013.1
20260507084102 0 190 4.0 10.0 0.00 0.00 0.00 68 1013.0
20260507083603 0 115 6.0 9.0 0.00 0.00 0.00 69 1013.0
20260507083102 0 118 9.0 17.0 0.00 0.00 0.00 69 1013.0
20260507082603 0 130 7.0 13.0 0.00 0.00 0.00 69 1013.0
20260507082103 0 146 7.0 13.0 0.00 0.00 0.00 72 1013.0
20260507081602 0 125 4.0 9.0 0.00 0.00 0.00 71 1012.8
20260507081102 0 180 4.0 10.0 0.00 0.00 0.00 69 1012.7
20260507080603 0 132 4.0 4.0 0.00 0.00 0.00 72 1013.2
20260507075603 0 59 0.0 4.0 0.00 0.00 0.00 74 1012.7
20260507075102 0 0 1.0 1.0 0.00 0.00 0.00 78 1012.7
20260507074603 0 105 2.0 2.0 0.00 0.00 0.00 79 1012.8
20260507074103 0 327 2.0 2.0 0.00 0.00 0.00 79 1012.8
20260507073602 0 294 0.0 1.0 0.00 0.00 0.00 79 1012.7
20260507073102 0 297 1.0 4.0 0.00 0.00 0.00 78 1012.8
20260507072602 0 350 2.0 5.0 0.00 0.00 0.00 79 1012.8
20260507072104 0 354 1.0 4.0 0.00 0.00 0.00 78 1012.8
20260507071604 0 17 2.0 5.0 0.00 0.00 0.00 75 1012.6
20260507071103 0 358 2.0 5.0 0.00 0.00 0.00 74 1012.7
20260507070602 0 0 2.0 5.0 0.00 0.00 0.00 73 1012.8
20260507065602 0 348 1.0 5.0 0.00 0.00 0.00 74 1012.7
20260507065103 0 17 2.0 4.0 0.00 0.00 0.00 77 1012.6
20260507064602 0 337 4.0 5.0 0.00 0.00 0.00 78 1012.7
20260507064103 0 0 0.0 2.0 0.00 0.00 0.00 80 1012.6
20260507063603 0 342 1.0 2.0 0.00 0.00 0.00 80 1012.7
20260507063103 0 353 2.0 7.0 0.00 0.00 0.00 80 1012.5
20260507062602 0 357 4.0 7.0 0.00 0.00 0.00 79 1012.6
20260507062102 0 323 1.0 6.0 0.00 0.00 0.00 78 1012.5
20260507061602 0 349 3.0 6.0 0.00 0.00 0.00 77 1012.2
20260507061103 0 356 0.0 5.0 0.00 0.00 0.00 77 1012.3
20260507060602 0 96 1.0 7.0 0.00 0.00 0.00 79 1012.6
20260507055603 0 7 2.0 6.0 0.00 0.00 0.00 80 1012.5
20260507055103 0 322 4.0 6.0 0.00 0.00 0.00 81 1012.2
20260507054603 0 1 4.0 10.0 0.00 0.00 0.00 81 1012.3
20260507054102 0 294 4.0 7.0 0.00 0.00 0.00 82 1012.2
20260507053604 0 356 5.0 8.0 0.00 0.00 0.00 82 1012.3
20260507053103 0 329 4.0 9.0 0.00 0.00 0.00 82 1012.2
20260507052603 0 348 5.0 6.0 0.00 0.00 0.00 83 1012.1
20260507052103 0 337 2.0 6.0 0.00 0.00 0.00 83 1012.1
20260507051603 0 0 1.0 7.0 0.00 0.00 0.00 83 1012.2
20260507051102 0 33 3.0 8.0 0.00 0.00 0.00 83 1012.2
20260507050602 0 357 2.0 4.0 0.00 0.00 0.00 84 1011.8
20260507045603 0 0 1.0 7.0 0.00 0.00 0.00 85 1011.7
20260507045102 0 325 3.0 6.0 0.00 0.00 0.00 84 1012.1
20260507044602 0 352 4.0 6.0 0.00 0.00 0.00 84 1011.7
20260507044102 0 346 1.0 6.0 0.00 0.00 0.00 85 1011.8
20260507043602 0 299 2.0 6.0 0.00 0.00 0.00 85 1011.7
20260507043105 0 351 3.0 8.0 0.00 0.00 0.00 85 1011.7
20260507042603 0 342 1.0 4.0 0.00 0.00 0.00 85 1011.7
20260507042102 0 300 1.0 6.0 0.00 0.00 0.00 85 1011.7
20260507041604 0 331 2.0 6.0 0.00 0.00 0.00 85 1011.7
20260507041103 0 3 5.0 6.0 0.00 0.00 0.00 86 1011.8
20260507040604 0 12 1.0 4.0 0.00 0.00 0.00 86 1011.7
20260507035603 0 326 4.0 6.0 0.00 0.00 0.00 86 1011.5
20260507035102 0 324 4.0 5.0 0.00 0.00 0.00 87 1011.6
20260507034602 0 23 0.0 2.0 0.00 0.00 0.00 87 1011.6
20260507034102 0 81 1.0 4.0 0.00 0.00 0.00 87 1011.5
20260507033603 0 324 3.0 3.0 0.00 0.00 0.00 87 1011.7
20260507032602 0 315 2.0 3.0 0.00 0.00 0.00 87 1011.5
20260507032103 0 328 3.0 4.0 0.00 0.00 0.00 87 1011.5
20260507031602 0 0 1.0 1.0 0.00 0.00 0.00 87 1011.7
20260507031103 0 97 2.0 2.0 0.00 0.00 0.00 87 1011.7
20260507030603 0 0 2.0 4.0 0.00 0.00 0.00 87 1011.5
20260507025603 0 355 4.0 6.0 0.00 0.00 0.00 87 1011.3
20260507025103 0 323 2.0 3.0 0.00 0.00 0.00 87 1011.6
20260507024602 0 327 2.0 5.0 0.00 0.00 0.00 87 1011.6
20260507024102 0 0 1.0 4.0 0.00 0.00 0.00 87 1011.5
20260507023602 0 318 3.0 6.0 0.00 0.00 0.00 87 1011.7
20260507023103 0 0 1.0 2.0 0.00 0.00 0.00 87 1011.6
20260507022602 0 346 0.0 1.0 0.00 0.00 0.00 87 1011.6
20260507022103 0 330 1.0 1.0 0.00 0.00 0.00 87 1011.6
20260507021603 0 311 0.0 2.0 0.00 0.00 0.00 87 1011.6
20260507021103 0 340 4.0 4.0 0.00 0.00 0.00 87 1011.5
20260507020603 0 329 4.0 4.0 0.00 0.00 0.00 87 1011.7
20260507015602 0 352 0.0 5.0 0.00 0.00 0.00 87 1011.8
20260507015103 0 324 3.0 4.0 0.00 0.00 0.00 87 1011.5
20260507014603 0 324 3.0 4.0 0.00 0.00 0.00 87 1011.5
20260507014102 0 348 2.0 4.0 0.00 0.00 0.00 87 1011.2
20260507013602 0 351 4.0 4.0 0.00 0.00 0.00 87 1011.6
20260507012603 0 54 1.0 3.0 0.00 0.00 0.00 87 1011.7
20260507012103 0 347 3.0 3.0 0.00 0.00 0.00 87 1011.5
20260507011602 0 324 3.0 4.0 0.00 0.00 0.00 87 1011.7
20260507011103 0 321 2.0 2.0 0.00 0.00 0.00 87 1011.6
20260507010603 0 304 2.0 2.0 0.00 0.00 0.00 86 1011.7
20260507005602 0 0 2.0 5.0 0.00 0.00 0.00 87 1011.7
20260507005102 0 285 3.0 4.0 0.00 0.00 0.00 87 1011.7
20260507004603 0 300 1.0 2.0 0.00 0.00 0.00 87 1012.0
20260507004104 0 334 1.0 3.0 0.00 0.00 0.00 87 1011.7
20260507003602 0 29 1.0 4.0 0.00 0.00 0.00 86 1011.5
20260507003102 0 352 1.0 3.0 0.00 0.00 0.00 86 1011.5
20260507002603 0 331 3.0 5.0 0.00 0.00 0.00 86 1011.6
20260507002103 0 343 4.0 5.0 0.00 0.00 0.00 86 1011.6
20260507001602 0 0 2.0 4.0 0.00 0.00 0.00 86 1011.6
20260507001102 0 323 3.0 4.0 0.00 0.00 0.00 86 1011.7
20260507000602 0 339 2.0 4.0 0.00 0.00 0.00 86 1011.5
20260506235602 0 15 4.0 5.0 0.00 0.00 0.00 87 1011.8
20260506235102 0 354 3.0 6.0 0.00 0.00 0.00 87 1011.7
20260506234603 0 301 2.0 5.0 0.00 0.00 0.00 87 1011.7
20260506234102 0 353 1.0 4.0 0.00 0.00 0.00 87 1011.6
20260506233602 0 0 4.0 7.0 0.00 0.00 0.00 87 1011.7
20260506233103 0 324 1.0 3.0 0.00 0.00 0.00 87 1011.8
20260506232603 0 261 0.0 1.0 0.00 0.00 0.00 87 1012.0
20260506232102 0 252 2.0 2.0 0.00 0.00 0.00 87 1011.8
20260506231603 0 319 0.0 2.0 0.00 0.00 0.00 87 1012.1
20260506231103 0 333 2.0 6.0 0.00 0.00 0.00 87 1011.8
20260506230603 0 26 2.0 6.0 0.00 0.00 0.00 87 1011.7
20260506225603 0 323 3.0 3.0 0.00 0.00 0.00 87 1011.7
20260506225103 0 355 1.0 4.0 0.00 0.00 0.00 86 1011.7
20260506224602 0 334 1.0 3.0 0.00 0.00 0.00 86 1011.6
20260506224103 0 0 3.0 5.0 0.00 0.00 0.00 86 1011.7
20260506223603 0 350 3.0 3.0 0.00 0.00 0.00 87 1011.7
20260506223103 0 32 0.0 1.0 0.00 0.00 0.00 87 1011.7
20260506222602 0 172 0.0 2.0 0.00 0.00 0.00 87 1011.7
20260506222102 0 187 0.0 1.0 0.00 0.00 0.00 87 1011.7
20260506221603 0 352 0.0 0.0 0.00 0.00 0.00 86 1011.5
20260506221102 0 270 0.0 2.0 0.00 0.00 0.00 86 1011.7
20260506220603 0 257 1.0 1.0 0.00 0.00 0.00 85 1011.8
20260506215603 0 180 2.0 2.0 0.00 0.00 0.00 85 1011.6
20260506215102 0 180 1.0 2.0 0.00 0.00 0.00 84 1011.7
20260506214602 0 23 0.0 1.0 0.00 0.00 0.00 84 1011.7
20260506214102 0 66 1.0 6.0 0.00 0.00 0.00 84 1011.7